+ View the NASA Portal
+ Center for Near-Earth Object Studies
IMPORTANT:
The SSD Announcement email list is now available. Major changes are coming in the near future, including possible hostname and/or URL changes. To be notified of such changes, subscribe to this email list.
Please visit
this page
for more details.
Don't show this message again
JPL Small-Body Database Browser
Search:
[
help
]
357626 (2005 EE199)
Classification:
Inner Main-belt Asteroid
SPK-ID:
2357626
[
Ephemeris
|
Orbit Diagram
|
Orbital Elements
|
Mission Design
|
Physical Parameters
|
Discovery Circumstances
]
[ show orbit diagram ]
Orbital Elements at Epoch 2458600.5 (2019-Apr-27.0) TDB
Reference:
JPL 15
(heliocentric ecliptic J2000)
Element
Value
Uncertainty (1-sigma)
Units
e
.09134440548214291
9.8848e-08
a
1.939119350702881
1.3192e-08
au
q
1.761991646454008
1.9278e-07
au
i
21.63361624683754
1.127e-05
deg
node
194.0527068257158
1.2978e-05
deg
peri
197.4939498577997
2.825e-05
deg
M
238.9802200677618
2.5975e-05
deg
t
p
2458932.057682480403
(2020-Mar-23.55768248)
7.2393e-05
TDB
period
986.2913794734872
2.70
1.0065e-05
2.756e-08
d
yr
n
.3650036971753511
3.7249e-09
deg/d
Q
2.116247054951755
1.4397e-08
au
Orbit Determination Parameters
# obs. used (total)
184
data-arc span
4670 days (12.79 yr)
first obs. used
2003-09-20
last obs. used
2016-07-03
planetary ephem.
DE431
SB-pert. ephem.
SB431-N16
condition code
0
norm. resid. RMS
.595
source
ORB
producer
Otto Matic
solution date
2017-Apr-10 06:50:28
Additional Information
Earth MOID
= .768321 au
Jupiter MOID
= 3.18709 au
T_jup
= 3.814
[ show covariance matrix ]
[
Ephemeris
|
Orbit Diagram
|
Orbital Elements
|
Mission Design
|
Physical Parameters
|
Discovery Circumstances
]
Physical Parameter Table
Parameter
Symbol
Value
Units
Sigma
Reference
Notes
absolute magnitude
H
17.7
n/a
MPO264885
357626 (2005 EE199)
Discovered 2005-Mar-11 by Mt. Lemmon Survey at Mount Lemmon
Reference:
20130327/Numbers.arc
Last Updated:
2013-03-29
Alternate Designations
2005 EE199
= 2003 SP127
[
Ephemeris
|
Orbit Diagram
|
Orbital Elements
|
Mission Design
|
Physical Parameters
|
Discovery Circumstances
]
2019-Dec-16 08:14 UT
(server date/time)
Site Manager:
Ryan S. Park
Webmaster
:
Alan B. Chamberlin